[Date Prev][Date Next][Thread Prev][Thread Next] - [Date Index][Thread Index][Author Index]

2 Line ISS Keps 7-16



ISS 
1 25544U 98067A   02197.46475694  .00011748  00000-0  15386-3 0  6662
2 25544  51.6364 265.9950 0008454   5.4471 183.2678 15.59041359208596


----
Via the sarex mailing list at AMSAT.ORG courtesy of AMSAT-NA.
To unsubscribe, send "unsubscribe sarex" to Majordomo@amsat.org



AMSAT Top AMSAT Home